Location: Azul
(36.7830°S, 59.8500°W)
Time: 20:34:26
(UTC-03:00)

ISS - Pass Details

Date: 17 February 2020
Orbit: 415 x 422 km, 51.6° (Epoch: 27 February)

Event Time Altitude Azimuth Distance (km) Brightness Sun altitude
Rises 21:15:13 0° 286° (WNW) 2,372 0.8 -15.9°
Reaches altitude 10° 21:17:30 10° 274° (W) 1,512 -0.1 -16.3°
Maximum altitude 21:20:29 28° 212° (SSW) 839 -1.6 -16.8°
Drops below altitude 10° 21:23:29 10° 151° (SSE) 1,521 -0.9 -17.3°
Enters shadow 21:25:37 - 139° (SE) 2,321 -0.1 -17.7°
